TimeCST,TemperatureF,Dew PointF,Humidity,Sea Level PressureIn,VisibilityMPH,Wind Direction,Wind SpeedMPH,Gust SpeedMPH,PrecipitationIn,Events,Conditions,WindDirDegrees,DateUTC
12:58 AM,4.3,-0.2,82,30.66,10.0,Calm,Calm,-,N/A,,Clear,0,2013-12-24 06:58:00
1:58 AM,3.9,-0.6,82,30.65,10.0,SSW,2.3,-,N/A,,Clear,210,2013-12-24 07:58:00
2:58 AM,4.1,-0.2,82,30.65,10.0,Calm,Calm,-,N/A,,Clear,0,2013-12-24 08:58:00
3:58 AM,3.9,-0.4,82,30.64,10.0,South,2.3,-,N/A,,Clear,170,2013-12-24 09:58:00
4:58 AM,4.5,0.5,84,30.63,10.0,South,1.2,-,N/A,,Clear,180,2013-12-24 10:58:00
5:58 AM,3.9,-0.2,83,30.63,10.0,SSW,4.6,-,N/A,,Clear,200,2013-12-24 11:58:00
6:58 AM,5.0,0.5,82,30.61,10.0,SE,3.5,-,N/A,,Clear,140,2013-12-24 12:58:00
7:58 AM,6.1,-0.0,76,30.61,10.0,SSE,4.6,-,N/A,,Clear,160,2013-12-24 13:58:00
8:58 AM,9.3,2.3,73,30.59,10.0,South,11.5,-,N/A,,Clear,170,2013-12-24 14:58:00
9:58 AM,12.9,5.7,73,30.58,10.0,SSE,9.2,-,N/A,,Clear,160,2013-12-24 15:58:00
10:58 AM,16.7,10.6,77,30.54,10.0,South,11.5,-,N/A,,Clear,170,2013-12-24 16:58:00
11:58 AM,19.6,14.4,80,30.49,10.0,South,9.2,-,N/A,,Overcast,170,2013-12-24 17:58:00
12:58 PM,22.6,16.9,79,30.44,10.0,SSE,11.5,-,N/A,,Clear,150,2013-12-24 18:58:00
1:58 PM,24.6,18.7,78,30.40,10.0,SSE,9.2,18.4,N/A,,Clear,150,2013-12-24 19:58:00
2:58 PM,25.5,20.8,82,30.37,10.0,SE,8.1,-,N/A,,Mostly Cloudy,140,2013-12-24 20:58:00
3:28 PM,26.6,21.2,80,30.29,10.0,SSE,8.1,-,N/A,,Mostly Cloudy,150,2013-12-24 21:28:00
3:58 PM,26.4,22.3,84,30.34,10.0,SSE,9.2,-,N/A,,Mostly Cloudy,160,2013-12-24 21:58:00
4:08 PM,26.6,23.0,86,30.28,10.0,SSE,5.8,-,N/A,,Mostly Cloudy,150,2013-12-24 22:08:00
4:58 PM,26.6,23.2,87,30.32,10.0,SE,8.1,-,N/A,,Overcast,140,2013-12-24 22:58:00
5:58 PM,26.4,22.8,86,30.31,10.0,Variable,3.5,-,N/A,,Overcast,0,2013-12-24 23:58:00
6:58 PM,25.7,22.1,86,30.29,10.0,SE,4.6,-,N/A,,Mostly Cloudy,140,2013-12-25 00:58:00
7:58 PM,25.3,21.6,86,30.29,10.0,SE,1.2,-,N/A,,Mostly Cloudy,140,2013-12-25 01:58:00
8:58 PM,24.3,21.6,89,30.32,10.0,WNW,4.6,-,N/A,,Overcast,300,2013-12-25 02:58:00
9:58 PM,25.7,23.2,90,30.32,10.0,WSW,2.3,-,N/A,,Overcast,240,2013-12-25 03:58:00
10:58 PM,26.4,24.1,91,30.32,10.0,SSW,2.3,-,N/A,,Overcast,200,2013-12-25 04:58:00
11:03 PM,26.6,24.8,93,30.27,10.0,South,3.5,-,N/A,,Overcast,190,2013-12-25 05:03:00
11:53 PM,26.6,24.8,93,30.27,10.0,SSW,3.5,-,N/A,,Overcast,210,2013-12-25 05:53:00
11:58 PM,27.0,25.0,92,30.32,10.0,South,4.6,-,N/A,,Overcast,190,2013-12-25 05:58:00